GW4922 Weather Reports


time (UTC)temp
F
wind
direction
speed
knots
gust
knots
rain 1hr
in
rain 24hr
in
rain mn
in
humidity
%
barometer
mb
20260502163129 67 18 3.5 7.8 0.00 0.00 0.00 62 1020.8
20260502162626 67 27 3.5 7.8 0.00 0.00 0.00 63 1021.1
20260502162123 67 17 7.0 9.6 0.00 0.00 0.00 64 1020.7
20260502161620 67 30 7.8 9.6 0.00 0.00 0.00 65 1020.7
20260502161117 67 26 4.3 12.2 0.00 0.00 0.00 64 1020.6
20260502160615 67 40 5.2 9.6 0.00 0.00 0.00 62 1020.8
20260502160114 67 27 6.1 9.6 0.00 0.00 0.00 64 1020.8
20260502152028 65 37 7.0 7.8 0.00 0.00 0.00 71 1020.3
20260502151525 64 359 6.1 7.8 0.00 0.00 0.00 75 1020.3
20260502151022 64 359 6.1 7.8 0.00 0.00 0.00 75 1020.3
20260502150520 63 64 8.7 11.3 0.00 0.00 0.00 74 1020.2
20260502130404 56 334 2.6 3.5 0.00 0.00 0.00 89 1019.4
20260502123347 55 320 3.5 6.1 0.00 0.00 0.00 91 1019.0
20260502122844 55 320 3.5 6.1 0.00 0.00 0.00 91 1018.9
20260502122339 55 320 3.5 6.1 0.00 0.00 0.00 91 1018.9
20260502121839 55 320 3.5 6.1 0.00 0.00 0.00 91 1018.5
20260502121335 55 320 3.5 6.1 0.00 0.00 0.00 91 1018.8
20260502120833 55 320 3.5 6.1 0.00 0.00 0.00 91 1018.5
20260502120329 55 304 3.5 3.5 0.00 0.00 0.00 92 1018.5
20260502115826 55 304 3.5 3.5 0.00 0.00 0.00 92 1018.4
20260502115323 55 304 3.5 3.5 0.00 0.00 0.00 92 1018.4
20260502114820 55 304 3.5 3.5 0.00 0.00 0.00 92 1018.3
20260502114316 55 304 3.5 3.5 0.00 0.00 0.00 92 1018.3
20260502113814 55 304 3.5 3.5 0.00 0.00 0.00 92 1018.1
20260502113311 55 304 3.5 3.5 0.00 0.00 0.00 92 1018.0
20260502112809 55 304 3.5 3.5 0.00 0.00 0.00 92 1017.8
20260502112306 55 304 3.5 3.5 0.00 0.00 0.00 92 1017.8
20260502111803 55 304 3.5 3.5 0.00 0.00 0.00 92 1017.7
20260502111301 55 262 1.7 3.5 0.00 0.00 0.00 92 1017.6
20260502110758 55 330 4.3 6.1 0.00 0.00 0.00 92 1017.6
20260502110256 55 312 4.3 5.2 0.00 0.00 0.00 92 1017.6
20260502105754 55 309 3.5 6.1 0.00 0.00 0.00 93 1017.5
20260502105249 55 312 3.5 3.5 0.00 0.00 0.00 93 1017.5
20260502104748 55 321 1.7 3.5 0.00 0.00 0.00 94 1017.5
20260502104245 55 340 5.2 6.1 0.00 0.00 0.00 94 1017.1
20260502103742 55 39 2.6 3.5 0.00 0.00 0.00 94 1017.0
20260502103240 55 323 2.6 3.5 0.00 0.00 0.00 95 1017.1
20260502102737 55 76 2.6 5.2 0.00 0.00 0.00 95 1017.0
20260502102233 55 333 3.5 5.2 0.00 0.00 0.00 95 1017.1
20260502101732 55 11 5.2 7.0 0.00 0.00 0.00 95 1017.2
20260502101230 56 11 1.7 2.6 0.00 0.00 0.00 96 1017.4
20260502100727 56 317 1.7 2.6 0.00 0.00 0.00 96 1017.4
20260502100226 56 345 3.5 3.5 0.00 0.00 0.00 96 1017.3
20260502091159 56 354 5.2 8.7 0.00 0.00 0.00 97 1016.1
20260502090657 56 26 4.3 6.1 0.00 0.00 0.00 97 1016.3
20260502090154 56 37 3.5 6.1 0.00 0.00 0.00 97 1015.9
20260502071055 56 25 5.2 7.8 0.00 0.00 0.00 97 1015.9
20260502070553 56 29 3.5 9.6 0.00 0.00 0.00 97 1015.8
20260502070051 56 345 5.2 9.6 0.00 0.00 0.00 97 1015.9
20260502065549 57 345 7.8 9.6 0.00 0.00 0.00 97 1016.0
20260502065046 57 221 2.6 7.0 0.00 0.00 0.00 98 1016.0
20260502064545 57 345 5.2 7.0 0.00 0.00 0.00 97 1015.9
20260502064041 57 18 7.8 12.2 0.00 0.00 0.00 97 1016.0
20260502063539 57 9 7.8 12.2 0.00 0.00 0.00 97 1015.8
20260502063037 57 347 5.2 8.7 0.00 0.00 0.00 97 1015.8
20260502062534 57 357 7.0 11.3 0.00 0.00 0.00 97 1015.9
20260502062032 57 5 6.1 8.7 0.00 0.00 0.00 98 1015.8
20260502061530 57 0 7.0 8.7 0.00 0.00 0.00 98 1015.7
20260502061026 57 29 4.3 7.8 0.00 0.00 0.00 98 1015.7
20260502060521 57 357 7.8 9.6 0.00 0.00 0.00 98 1015.4
20260502060019 57 9 2.6 7.8 0.00 0.00 0.00 98 1015.4
20260502055516 57 6 7.0 8.7 0.00 0.00 0.00 98 1015.2
20260502055015 57 16 7.8 13.0 0.00 0.00 0.00 98 1015.2
20260502054513 57 30 5.2 11.3 0.00 0.00 0.00 98 1015.2
20260502054010 57 342 7.8 12.2 0.00 0.00 0.00 98 1015.2
20260502053507 57 50 3.5 8.7 0.00 0.00 0.00 98 1015.1
20260502053005 57 353 7.8 12.2 0.00 0.00 0.00 98 1015.1
20260502052502 57 11 4.3 8.7 0.00 0.00 0.00 98 1015.3
20260502052001 57 350 6.1 7.8 0.00 0.00 0.00 98 1015.3
20260502051458 57 350 7.0 12.2 0.00 0.00 0.00 98 1015.3
20260502050955 57 16 7.8 9.6 0.00 0.00 0.00 98 1015.5
20260502050451 57 352 4.3 9.6 0.00 0.00 0.00 98 1015.4
20260502045949 57 345 3.5 11.3 0.00 2.26 2.26 98 1015.7
20260502045446 57 23 7.8 12.2 0.00 2.26 2.26 98 1015.2
20260502044943 57 357 3.5 7.8 0.00 2.26 2.26 98 1015.3
20260502044438 57 24 5.2 8.7 0.00 2.26 2.26 98 1015.3
20260502043936 57 9 2.6 12.2 0.00 2.26 2.26 98 1015.3
20260502043433 57 359 7.8 13.9 0.00 2.26 2.26 98 1015.1
20260502042932 57 340 5.2 7.8 0.00 2.26 2.26 98 1015.1
20260502042430 57 85 5.2 11.3 0.00 2.26 2.26 98 1015.0
20260502041927 57 343 6.1 8.7 0.00 2.26 2.26 98 1015.0
20260502041425 57 349 7.8 11.3 0.00 2.26 2.26 98 1015.0
20260502040921 57 342 7.0 12.2 0.00 2.26 2.26 98 1015.2
20260502040418 57 337 7.0 9.6 0.00 2.26 2.26 98 1014.9
20260502035914 57 17 3.5 7.0 0.00 2.26 2.26 98 1015.2
20260502035411 57 343 5.2 7.0 0.00 2.26 2.26 98 1015.1
20260502034909 57 358 5.2 8.7 0.00 2.26 2.26 98 1014.9
20260502034407 58 314 7.8 12.2 0.00 2.26 2.26 98 1014.8
20260502033905 58 314 5.2 11.3 0.00 2.26 2.26 98 1014.8
20260502033402 58 345 10.4 12.2 0.00 2.26 2.26 98 1014.6
20260502032859 59 351 8.7 15.6 0.00 2.26 2.26 98 1014.5
20260502032355 59 20 6.1 8.7 0.00 2.26 2.26 98 1014.4
20260502031853 59 6 3.5 6.1 0.00 2.26 2.26 98 1014.5
20260502031351 59 344 2.6 3.5 0.00 2.26 2.26 98 1014.3
20260502030849 58 309 2.6 5.2 0.00 2.26 2.26 98 1014.3
20260502030347 58 231 1.7 2.6 0.00 2.26 2.26 98 1014.4
20260502025844 58 5 2.6 7.0 0.00 2.26 2.26 98 1013.8
20260502025341 58 28 2.6 5.2 0.00 2.26 2.26 98 1013.6
20260502024839 58 23 3.5 8.7 0.00 2.26 2.26 98 1013.7
20260502024337 58 353 4.3 7.0 0.00 2.26 2.26 98 1013.6
20260502023834 58 330 7.8 11.3 0.07 2.26 2.26 98 1013.5
20260502023332 59 11 7.8 11.3 0.07 2.26 2.26 98 1013.4
20260502022830 59 56 2.6 2.6 0.00 2.25 2.25 98 1013.3
20260502022326 59 56 2.6 2.6 0.05 2.25 2.25 98 1012.9
20260502021823 59 56 2.6 2.6 0.05 2.25 2.25 98 1013.2
20260502021320 59 14 6.1 7.0 0.00 2.24 2.24 98 1013.0
20260502020817 59 14 6.1 7.0 0.00 2.24 2.24 98 1013.1
20260502020315 59 14 6.1 7.0 0.00 2.24 2.24 98 1013.1
20260502015812 59 14 6.1 7.0 0.12 2.24 2.24 98 1012.9
20260502015308 59 14 6.1 7.0 0.12 2.24 2.24 98 1013.3
20260502014806 59 13 4.3 7.8 0.00 2.22 2.22 98 1013.4
20260502014303 59 353 7.0 7.8 0.00 2.22 2.22 98 1013.2
20260502013759 59 320 5.2 7.8 0.07 2.22 2.22 98 1013.1
20260502013254 59 33 6.1 7.8 0.07 2.22 2.22 98 1013.0
20260502012751 59 61 3.5 3.5 0.00 2.21 2.21 98 1013.0
20260502012249 59 61 3.5 3.5 0.00 2.21 2.21 98 1012.8
20260502011746 59 61 3.5 7.8 0.00 2.21 2.21 98 1012.8
20260502011242 59 358 4.3 6.1 0.00 2.21 2.21 98 1012.6
20260502010740 59 340 7.8 11.3 0.07 2.21 2.21 98 1012.3
20260502010236 60 339 7.8 11.3 0.07 2.21 2.21 98 1012.2
20260502005733 60 345 7.0 7.8 0.00 2.20 2.20 98 1012.2
20260502005231 60 335 5.2 7.0 0.05 2.20 2.20 98 1012.0
20260502004727 60 7 4.3 11.3 0.05 2.20 2.20 98 1011.9
20260502004224 60 10 5.2 7.8 0.12 2.19 2.19 98 1012.0
20260502003722 60 341 5.2 6.1 0.12 2.19 2.19 98 1011.6
20260502003219 60 338 6.1 7.0 0.07 2.17 2.17 98 1011.2
20260502002714 60 338 6.1 7.0 0.12 2.17 2.17 98 1011.3
20260502002212 60 345 6.1 7.8 0.90 2.16 2.16 98 1011.1
20260502001709 60 18 7.8 9.6 0.85 2.15 2.15 98 1011.1
20260502001207 61 334 7.0 7.8 0.00 2.01 2.01 98 1011.0
20260502000704 61 334 7.0 7.8 0.83 2.01 2.01 98 1011.1
20260502000203 61 334 7.0 7.8 1.87 2.01 2.01 98 1011.8
20260501235658 61 303 7.8 8.7 1.04 1.87 1.87 98 1012.3
20260501235154 0 0.0 0.0 0.00 0.00 0.00 1011.7
20260501234649 0 0.0 0.0 0.00 0.00 0.00 1010.6
20260501234147 0 0.0 0.0 0.00 0.00 0.00 1010.0
20260501233645 0 0.0 0.0 0.00 0.00 0.00 1009.4
20260501233142 62 41 6.1 7.0 0.00 1.70 1.70 97 1009.2
20260501232638 62 41 6.1 7.0 0.00 1.70 1.70 97 1010.0
20260501232136 62 41 6.1 7.0 0.00 1.70 1.70 97 1009.6
20260501231633 62 41 6.1 7.0 0.00 1.70 1.70 97 1009.0
20260501231131 62 41 6.1 7.0 0.00 1.70 1.70 97 1009.5
20260501230629 62 41 6.1 7.0 0.00 1.70 1.70 97 1009.3
20260501230127 62 41 6.1 7.0 0.00 1.70 1.70 97 1008.8
20260501225624 62 41 6.1 7.0 0.00 1.70 1.70 97 1008.8
20260501225120 62 41 6.1 7.0 0.00 1.70 1.70 97 1009.3
20260501224618 62 41 6.1 7.0 0.00 1.70 1.70 97 1009.4
20260501224115 62 41 6.1 7.0 0.05 1.70 1.70 97 1009.5
20260501223611 62 41 6.1 7.0 0.05 1.70 1.70 97 1009.9
20260501223108 62 65 4.3 12.2 0.00 1.69 1.69 97 1009.7
20260501222604 62 5 5.2 13.0 0.00 1.69 1.69 97 1009.8
20260501222101 62 89 4.3 7.8 0.00 1.69 1.69 97 1009.8
20260501221558 62 9 3.5 9.6 0.07 1.69 1.69 97 1009.7
20260501221055 62 38 7.8 11.3 0.12 1.69 1.69 97 1009.9
20260501220553 63 24 7.8 8.7 0.05 1.68 1.68 97 1009.5
20260501220049 63 28 4.3 9.6 0.00 1.67 1.67 97 1009.6
20260501215545 63 28 7.8 11.3 0.00 1.67 1.67 97 1009.6
20260501215041 63 350 2.6 11.3 0.00 1.67 1.67 97 1010.0
20260501214536 63 344 6.1 9.6 0.00 1.67 1.67 97 1009.9
20260501214032 63 81 3.5 8.7 0.00 1.67 1.67 97 1009.9
20260501213530 64 351 3.5 9.6 0.00 1.67 1.67 97 1010.1
20260501213026 64 0 4.3 7.8 0.00 1.67 1.67 97 1010.0
20260501212522 64 32 3.5 6.1 0.00 1.67 1.67 97 1010.4
20260501212020 64 17 6.1 7.8 0.00 1.67 1.67 97 1010.0
20260501211516 63 317 3.5 7.0 0.00 1.67 1.67 97 1009.9
20260501211014 63 33 3.5 7.8 0.00 1.67 1.67 97 1009.5
20260501210510 63 10 7.0 7.8 1.56 1.67 1.67 97 1009.5
20260501210007 63 9 3.5 7.8 1.56 1.67 1.67 97 1009.6
20260501205503 63 31 6.1 7.8 1.13 1.41 1.41 97 1009.0
20260501205001 63 31 6.1 7.8 2.46 1.41 1.41 97 1007.7
20260501204456 63 74 4.3 6.1 2.36 1.22 1.22 97 1009.3
20260501203953 63 226 2.6 3.5 1.04 1.00 1.00 96 1011.5
20260501203450 63 14 2.6 3.5 0.05 0.83 0.83 96 1010.6
20260501202948 63 14 2.6 3.5 0.24 0.83 0.83 96 1009.4
20260501202444 63 337 4.3 6.1 0.12 0.81 0.81 96 1008.8
20260501201940 63 356 3.5 6.1 0.00 0.79 0.79 96 1008.6
20260501201437 63 31 4.3 6.1 0.00 0.79 0.79 96 1008.1
20260501200935 63 13 7.8 11.3 0.05 0.79 0.79 96 1007.8
20260501200432 63 49 4.3 9.6 0.05 0.79 0.79 96 1007.9
20260501195929 63 16 5.2 7.8 0.07 0.78 0.78 96 1007.7
20260501195426 63 34 4.3 8.7 0.24 0.78 0.78 96 1007.6
20260501194921 64 28 5.2 7.0 0.24 0.75 0.75 96 1008.5
20260501194417 64 20 4.3 6.1 0.92 0.74 0.74 96 1008.8
20260501193913 64 193 1.7 1.7 0.19 0.61 0.61 96 1009.6
20260501193412 64 238 0.9 1.7 0.12 0.59 0.59 96 1009.7
20260501192909 64 68 1.7 1.7 0.07 0.58 0.58 96 1009.4
20260501192406 64 94 1.7 2.6 0.05 0.57 0.57 96 1009.2
20260501191903 64 141 0.9 1.7 0.05 0.57 0.57 96 1009.4
20260501191400 64 147 0.9 2.6 0.66 0.56 0.56 95 1009.3
20260501190857 63 6 2.6 5.2 1.02 0.56 0.56 95 1009.0
20260501190353 63 68 4.3 7.0 0.35 0.45 0.45 95 1008.2
20260501185848 63 134 0.9 0.9 0.38 0.39 0.39 95 1008.4
20260501185344 63 79 1.7 2.6 0.38 0.39 0.39 95 1008.9
20260501184840 64 4 7.8 8.7 0.00 0.33 0.33 95 1008.4
20260501184337 64 33 7.0 11.3 0.00 0.33 0.33 95 1008.6
20260501183832 64 348 3.5 9.6 0.00 0.33 0.33 95 1008.4
20260501183330 64 355 6.1 7.8 0.00 0.33 0.33 95 1008.4
20260501182826 64 66 3.5 3.5 0.00 0.33 0.33 95 1009.1
20260501182323 64 14 7.0 11.3 0.00 0.33 0.33 95 1009.1
20260501181820 64 352 6.1 8.7 0.00 0.33 0.33 95 1009.1
20260501181317 64 96 2.6 9.6 0.05 0.33 0.33 94 1009.0
20260501180814 64 358 7.0 9.6 0.05 0.33 0.33 94 1009.3
20260501180310 64 1 8.7 13.0 0.00 0.32 0.32 94 1009.4
20260501175808 64 335 5.2 8.7 0.00 0.32 0.32 94 1009.5
20260501175306 64 12 4.3 9.6 0.00 0.32 0.32 94 1009.9
20260501174801 64 30 5.2 7.0 0.00 0.32 0.32 94 1009.9
20260501174258 64 38 3.5 8.7 0.00 0.32 0.32 94 1010.0
20260501173756 64 110 1.7 2.6 0.00 0.32 0.32 94 1009.9
20260501173253 64 136 1.7 5.2 0.12 0.32 0.32 94 1010.0
20260501172749 64 26 4.3 5.2 0.19 0.32 0.32 94 1010.3
20260501172244 64 77 3.5 6.1 0.19 0.30 0.30 94 1010.2
20260501171740 64 53 3.5 5.2 0.35 0.28 0.28 93 1010.2
20260501171237 64 32 2.6 7.0 0.59 0.27 0.27 93 1009.7
20260501170734 64 2 2.6 6.1 0.35 0.21 0.21 93 1010.3
20260501170231 64 10 6.1 9.6 0.19 0.17 0.17 93 1010.6
20260501165728 64 19 5.2 7.0 0.07 0.15 0.15 93 1010.7
20260501165226 64 359 4.3 6.1 0.00 0.14 0.14 93 1010.7
20260501164724 64 18 4.3 7.8 0.05 0.14 0.14 93 1010.8
20260501164220 64 21 3.5 7.0 0.42 0.14 0.14 93 1010.4
20260501163716 64 17 4.3 7.8 0.50 0.13 0.13 93 1010.9